Regional Weather Roundup
Issued by NWS

Home | Current Version | Previous Version | Text Only | Print | Product List | Glossary On
Versions: 1 2 3 4 5 6 7 8 9 10 11 12 13 14 15 16 17 18 19 20 21 22 23 24 25 26 27 28 29 30 31 32 33 34 35 36 37 38 39 40 41 42 43 44 45 46 47 48 49 50
000
ASUS44 KFWD 240515
RWRTX
NORTH TEXAS HOURLY WEATHER ROUNDUP
NATIONAL WEATHER SERVICE FORT WORTH TX
1100 PM CST SUN NOV 23 2014

NOTE: "FAIR" INDICATES FEW OR NO CLOUDS BELOW 12,000 FEET WITH NO
SIGNIFICANT WEATHER AND/OR OBSTRUCTIONS TO VISIBILITY.

TXZ118-119-240600-
DALLAS/FORT WORTH METROPLEX

CITY           SKY/WX    TMP DP  RH WIND       PRES   REMARKS
DFW AIRPORT    PTCLDY    49  38  65 NW20      29.79R
DALLAS LOVE    PTCLDY    51  38  60 NW21G31   29.80R
FTW MEACHAM    CLEAR     50  38  63 NW17      29.81R
DAL-EXECUTIVE  CLEAR     51  38  60 NW25G36   29.79R
FTW-ALLIANCE   CLEAR     48  37  65 NW12      29.82R
FTW-SPINKS     CLEAR     50  37  60 NW16G25   29.84R
ARLINGTON      CLEAR     52  37  56 NW18G25   29.81R
GRAND PRAIRIE  CLEAR     51  40  66 NW6G20    29.83R
ADDISON        CLEAR     50  41  70 NW15G26   29.82R
MESQUITE       MOCLDY    52  38  60 NW21G31   29.78R
LANCASTER      CLEAR     50  37  60 NW22G37   29.80R
$$

TXZ091>094-102>105-117-120-121-131>134-240600-
NORTH CENTRAL TEXAS

CITY           SKY/WX    TMP DP  RH WIND       PRES   REMARKS
SHRMAN/DENISON MOCLDY    49  41  73 NW21G29   29.79R
GAINESVILLE    PTCLDY    46  37  71 NW9       29.82R
BOWIE          PTCLDY    46  38  72 NW14      29.81R WCI  40
BRIDGEPORT     CLEAR     48  38  66 NW6       29.85R
DECATUR        CLEAR     46  36  68 NW6       29.82R
DENTON         CLEAR     48  37  65 NW15      29.81R
MCKINNEY       MOCLDY    49  39  68 NW20G29   29.79R
GREENVILLE     CLOUDY    52  37  58 NW17G29   29.75R
ROCKWALL       CLOUDY    52  40  64 NW18G28   29.76R
TERRELL        CLOUDY    54  40  59 NW16G29   29.78R
WAXAHACHIE     CLEAR     50  40  69 NW16G24   29.81R
CLEBURNE       CLEAR     48  37  66 NW13G22   29.85R
GRANBURY       PTCLDY    51  37  58 NW10G17   29.86R
$$

TXZ083>090-098>101-113>116-127>130-139>142-154-155-240600-
WESTERN NORTH TEXAS

CITY           SKY/WX    TMP DP  RH WIND       PRES   REMARKS
WICHITA FALLS  PTCLDY    48  36  63 W15       29.83R
WF-KICKAPOO    PTCLDY    50  34  55 NW9       29.85R
VERNON         CLEAR     45  36  70 W10       29.88R WCI  39
ABILENE        PTCLDY    45  35  68 NW9       29.92R
ABILENE-DYESS  PTCLDY    44  35  70 NW6       29.91R
BRECKENRIDGE   PTCLDY    47  37  65 NW6       29.88S
GRAHAM         CLEAR     45  38  76 S6        29.86R
MINERAL WELLS  CLEAR    N/A N/A N/A NW8       29.84R
STEPHENVILLE   CLEAR     49  35  57 NW9       29.89R
COMANCHE       PTCLDY    48  38  68 N8        29.89R
BROWNWOOD      CLOUDY    46  36  66 NW8       29.91R
COLEMAN        PTCLDY    47  38  70 NW7       29.92R
BRADY          CLEAR     48  36  61 N12       29.90R
$$

TXZ143>147-156>162-174-175-240600-
CENTRAL TEXAS

CITY           SKY/WX    TMP DP  RH WIND       PRES   REMARKS
WACO           CLEAR     53  39  59 NW18G28   29.83R
WACO-MCGREGOR  CLEAR     54  36  50 NW17G25   29.85R
HILLSBORO      CLEAR     51  39  63 NW21      29.83R
CORSICANA      CLEAR     54  40  59 NW17G26   29.81R
MEXIA          CLEAR     54  40  60 NW14G22   29.79R
HEARNE         CLEAR     57  43  58 NW10G18   29.80R
CAMERON        CLEAR     57  42  58 N16G24    29.81R
TEMPLE         CLEAR     54  37  54 NW17G23   29.82R
KILLEEN        CLEAR     52  39  60 N18G29    29.84R
KILLEEN-SKYLRK CLEAR     54  36  50 NW15G26   29.83R
FORT HOOD      CLEAR     56  38  50 NW21G28   29.83R
GATESVILLE     CLEAR     52  39  62 N15G21    29.87R
HAMILTON       CLEAR     50  37  61 N12G22    29.88R
LAMPASAS       CLEAR     52  40  63 N13G21    29.86R
$$

TXZ095>097-106>112-122>126-135>138-148>153-164>167-240600-
EAST TEXAS

CITY           SKY/WX    TMP DP  RH WIND       PRES   REMARKS
PARIS          CLOUDY    52  39  62 NW22G36   29.69R
SULPHUR SPRNGS CLOUDY    53  40  62 NW20G37   29.76R
MOUNT PLEASANT PTCLDY    54  42  65 W25G33    29.72R
MINEOLA        MOCLDY    54  43  66 NW12G22   29.74R
TYLER          CLEAR     55  41  59 NW16G28   29.73R
LONGVIEW       CLEAR     57  44  62 W17G28    29.68R
MARSHALL       CLEAR     61  47  60 W12G23    29.68R
ATHENS         CLEAR     54  39  58 NW10G21   29.76R
PALESTINE      CLEAR     56  42  58 NW9G29    29.77R
JACKSONVILLE   CLEAR     58  44  58 NW18G26   29.73R
HENDERSON      CLEAR     57  44  61 W13G21    29.72R
NACOGDOCHES    CLEAR     59  45  58 NW12      29.70R
LUFKIN         CLEAR     63  47  55 NW8       29.69R
$$

SUPPLEMENTAL OBSERVATIONS (CENTRAL)

CITY           SKY/WX    TMP DP  RH WIND       PRES   REMARKS
LAKE TEXOMA      N/A     50  39  66 NW30        N/A
PAT MAYSE LAKE   N/A     50  39  66 W21         N/A
ATHENS           N/A     54  39  58 NW8G16      N/A
PALESTINE        N/A     55  39  54 NW12G24     N/A
LAKE LIMESTONE   N/A     55  39  54 NW10G26     N/A
MCGREGOR         N/A     54  39  58 NW15G25     N/A
TEMPLE           N/A     55  39  54 NW5         N/A
$$

SUPPLEMENTAL OBSERVATIONS (WEST)

CITY           SKY/WX    TMP DP  RH WIND       PRES   REMARKS
MILLERS CREEK    N/A     45  32  61 NW13        N/A  WCI  38
POSSUM KINGDOM   N/A     46  34  61 W6          N/A
GRANBURY         N/A     48  34  57 NW13G24     N/A
COMANCHE         N/A     46  32  57 NW9G17      N/A
HAMBY            N/A     43  34  70 NW3G13      N/A
IVIE RESERVOIR   N/A     48  36  61 NW9G17      N/A
COLORADO BEND    N/A     50  34  53 N7G17       N/A
$$

SUPPLEMENTAL OBSERVATIONS (EAST)

CITY           SKY/WX    TMP DP  RH WIND       PRES   REMARKS
CLARKSVILLE      N/A     52  41  66 NW14G26     N/A
TEXARKANA        N/A     55  45  67 W9G24       N/A
LINDEN           N/A     55  43  62 NW10G26     N/A
CADDO LAKE       N/A     59  46  63 W7          N/A
GILMER           N/A     55  41  58 NW14G26     N/A
HENDERSON        N/A     57  43  58 W14G26      N/A
LUFKIN           N/A     61  46  59 MISG        N/A
N SABINE NF      N/A     55  50  82 MISG        N/A
S SABINE NF      N/A     55  52  88 S2          N/A
$$

SUPPLEMENTAL OBSERVATIONS ARE A COLLECTION OF AUTOMATED INSTRUMENTS
THAT ARE MAINTAINED BY A VARIETY OF FEDERAL AND STATE AGENCIES.
CERTAIN ELEMENTS...SUCH AS HUMIDITY VALUES AND SUSTAINED WIND
SPEEDS...MAY BE APPROXIMATED.




USA.gov is the U.S. government's official web portal to all federal, state and local government web resources and services.